Location: Moena
(46.3667°N, 11.6500°E)
Time: 20:28:15
(UTC+00:00)

YAOGAN 1 - Pass Details

Date: 03 March 2021
Orbit: 618 x 620 km, 97.9° (Epoch: 20 April)

Event Time Altitude Azimuth Distance (km) Brightness Sun altitude
Rises 17:36:59 0° 157° (SSE) 2,884 5.8 -6.7°
Reaches altitude 10° 17:39:10 10° 154° (SSE) 1,983 4.9 -7.1°
Maximum altitude 17:43:26 65° 73° (ENE) 688 2.6 -7.9°
Drops below altitude 10° 17:47:44 10° 352° (N) 1,999 5.3 -8.6°
Sets 17:49:57 0° 350° (N) 2,910 6.1 -9.0°
